{"data":{"norad_id":53539,"epoch":"2026-09-20T13:28:02.127936Z","epoch_age_seconds":73102,"freshness":"FRESH","line1":"1 53539U 22101N   26263.56113574 -.00000037  00000+0  10043-4 0  9994","line2":"2 53539  53.1604 269.0870 0001015  97.9264 262.1854 15.34392097225721","mean_motion":15.34392097,"eccentricity":0.0001015,"inclination_deg":53.1604,"raan_deg":269.087,"arg_perigee_deg":97.9264,"mean_anomaly_deg":262.1854,"bstar":1.0043e-5,"rev_number":22572,"period_min":93.848241451155,"perigee_km":462.03238202084,"apogee_km":463.42107735797,"semimajor_km":6840.8637296894,"source":"CELESTRAK","updated_at":"2026-09-21T09:00:32.901071Z"}}